Regional Weather Roundup
Issued by NWS

Home | Current Version | Previous Version | Graphics & Text | Print | Product List | Glossary On
Versions: 1 2 3 4 5 6 7 8 9 10 11 12 13 14 15 16 17 18 19 20 21 22 23 24 25 26 27 28 29 30 31 32 33 34 35 36 37 38 39 40 41 42 43 44 45 46 47 48 49 50
000
ASUS43 KFSD 250110
RWRSD

WEATHER ROUNDUP FOR SOUTH DAKOTA
NATIONAL WEATHER SERVICE SIOUX FALLS SD
800 PM CDT FRI APR 24 2015

NOTE: "FAIR" INDICATES FEW OR NO CLOUDS BELOW 12,000 FEET WITH NO
SIGNIFICANT WEATHER AND/OR OBSTRUCTIONS TO VISIBILITY.


SDZ001>005-009-010-012>017-250200-
NORTHWEST AND NORTH CENTRAL SOUTH DAKOTA

CITY           SKY/WX    TMP DP  RH WIND       PRES   REMARKS
BUFFALO          N/A     65  33  30 E9        29.54R
FAITH            N/A     65  32  29 NE14      29.57R
MOBRIDGE       CLEAR     66  45  46 E15       29.54R
$$

SDZ012>016-024>037-041>051-057-063-072>074-250200-
SOUTHWEST AND SOUTH CENTRAL SOUTH DAKOTA

CITY           SKY/WX    TMP DP  RH WIND       PRES   REMARKS
RAPID CTY ARPT MOCLDY    58  45  62 SE15      29.58R
PIERRE         PTCLDY    68  45  43 NE16      29.49R
CUSTER         CLOUDY    50  43  77 N5        29.64S
ELLSWORTH AFB  MOCLDY    66  30  26 E14G20    29.57
PHILIP         MOCLDY    67  43  41 NE8       29.53R
PINE RIDGE     CLOUDY    54  45  71 N18       29.55F
SPEARFISH      FAIR      57  37  47 SE8       29.62R
WINNER         FAIR      71  42  35 N6        29.45S
$$

SDZ004>011-016>023-039-040-250200-
NORTHEAST SOUTH DAKOTA

CITY           SKY/WX    TMP DP  RH WIND       PRES   REMARKS
ABERDEEN       MOCLDY    55  45  68 E20       29.58S
WATERTOWN      CLOUDY    52  43  71 E13G25    29.60R
BROOKINGS      CLOUDY    54  46  76 E17G25    29.60R
SISSETON         N/A     50  44  80 SE18      29.66R
$$

SDZ017-020-022-023-036>040-048>070-250200-
SOUTHEAST SOUTH DAKOTA

CITY           SKY/WX    TMP DP  RH WIND       PRES   REMARKS
SIOUX FALLS    CLOUDY    61  50  67 SE22G32   29.55R
HURON          CLOUDY    66  49  54 E21G31    29.49R
CHAMBERLAIN    CLOUDY    71  46  42 N9        29.44F
MITCHELL       CLOUDY    64  54  69 NE15      29.48F
YANKTON        MOCLDY    70  54  56 S15       29.48S
$$

ABBREVIATIONS USED IN REMARKS
   TC - TEMPERATURE IN CELSIUS
  WCI - WIND CHILL INDEX
   HX - HEAT INDEX
  VSB - VISIBILITY




USA.gov is the U.S. government's official web portal to all federal, state and local government web resources and services.